This demonstration page uses our WeatherBlox Daily Observations layout. Learn more.

38.89511, -77.03637

Hourly Observations for November 26, 2017

Temp ( °F °C ) Dew Point ( °F °C ) Humidity (%) Winds ( mph kmh ) Pressure ( in mb ) Visibility ( mi km ) Precip ( " mm )
12:52 am 00:52 Mostly Clear 52 11.1 35 1.7 53 53 NNW 6 9 29.88 1012 10 16.09344 0 0
1:52 am 01:52 Partly Cloudy 52 11.1 35 1.7 53 53 Calm 29.91 1013 10 16.09344 0 0
2:52 am 02:52 Partly Cloudy 49 9.4 34 1.1 56 56 Calm 29.94 1014 10 16.09344 0 0
3:52 am 03:52 Partly Cloudy 48 8.9 34 1.1 58 58 SW 3 6 29.94 1014 10 16.09344 0 0
4:52 am 04:52 Partly Cloudy 49 9.4 31 -0.6 50 50 W 3 6 29.97 1015 10 16.09344 0 0
5:52 am 05:52 Partly Cloudy 48 8.9 31 -0.6 52 52 WSW 6 9 29.97 1015 10 16.09344 0 0
6:52 am 06:52 Partly Cloudy 47 8.3 31 -0.6 54 54 W 5 7 30 1016 10 16.09344 0 0
7:52 am 07:52 Partly Cloudy 49 9.4 30 -1.1 48 48 WNW 10 17 30.03 1017 10 16.09344 0 0
8:52 am 08:52 Mostly Cloudy 51 10.6 30 -1.1 44 44 NW 9 15 30.06 1018 10 16.09344 0 0
9:52 am 09:52 Mostly Cloudy 51 10.6 30 -1.1 44 44 NNW 17 28 30.06 1018 10 16.09344 0 0
10:52 am 10:52 Sunny 53 11.7 31 -0.6 43 43 NW 12 19 30.06 1018 10 16.09344 0 0
11:52 am 11:52 Mostly Cloudy 54 12.2 30 -1.1 40 40 NW 14 22 30.03 1017 10 16.09344 0 0
12:52 pm 12:52 Mostly Cloudy 54 12.2 31 -0.6 42 42 NNW 10 17 30.03 1017 10 16.09344 0 0
1:52 pm 13:52 Mostly Cloudy 54 12.2 28 -2.2 37 37 WNW 13 20 30.03 1017 10 16.09344 0 0
2:52 pm 14:52 Partly Cloudy 54 12.2 29 -1.7 38 38 NNW 12 19 30.03 1017 10 16.09344 0 0
3:52 pm 15:52 Mostly Sunny 53 11.7 29 -1.7 40 40 NNW 8 13 30.03 1017 10 16.09344 0 0
4:52 pm 16:52 Mostly Clear 51 10.6 28 -2.2 41 41 W 6 9 30.03 1017 10 16.09344 0 0
5:52 pm 17:52 Mostly Clear 50 10 28 -2.2 43 43 W 5 7 30.03 1017 10 16.09344 0 0
6:52 pm 18:52 Mostly Clear 48 8.9 28 -2.2 46 46 WSW 5 7 30.06 1018 10 16.09344 0 0
7:52 pm 19:52 Mostly Clear 46 7.8 33 0.6 61 61 Calm 30.06 1018 10 16.09344 0 0
8:52 pm 20:52 Mostly Clear 47 8.3 27 -2.8 46 46 W 8 13 30.06 1018 10 16.09344 0 0
9:52 pm 21:52 Clear 46 7.8 27 -2.8 47 47 WNW 8 13 30.06 1018 10 16.09344 0 0
10:52 pm 22:52 Partly Cloudy 47 8.3 25 -3.9 42 42 NW 9 15 30.06 1018 10 16.09344 0 0
11:52 pm 23:52 Mostly Cloudy 45 7.2 26 -3.3 48 48 Calm 30.06 1018 10 16.09344 0 0

Powered by AerisWeather